Murray, KY

2:15 AM CST on December 14, 2019 (GMT -0600)
Kyle-Oakley

Weather History for KCEY - November, 2019

Change the Weather History Date:

Tuesday, November 12, 2019

  Actual Average (WUND) Record (WUND)
Temperature  
Mean Temperature 17 °F -  
Max Temperature 24 °F - - (-1)
Min Temperature 10 °F - - (-1)
Degree Days  
Heating Degree Days 48    
Moisture  
Dew Point 8 °F    
Average Humidity 65    
Maximum Humidity 92    
Minimum Humidity 39    
Precipitation  
Precipitation 0.00 in - - ()
Sea Level Pressure  
Sea Level Pressure 30.48 in    
Wind  
Wind Speed 13 mph (NNW)    
Max Wind Speed 22 mph    
Max Gust Speed 33 mph    
Visibility 10 miles    
Events      
Averages and records for this station are not official NWS values.
T = Trace of Precipitation, MM = Missing Value Source: NWS Daily Summary

Daily Weather History Graph

Daily Weather History Graph

Search for Another Location

Airport or City:

Astronomy

Nov. 12, 2019 Rise Set
Actual Time 6:28 AM CST 4:46 PM CST
Civil Twilight 6:00 AM CST 5:14 PM CST
Nautical Twilight 5:29 AM CST 5:45 PM CST
Astronomical Twilight 4:59 AM CST 6:15 PM CST
Moon 5:13 PM CST (11/12) 6:20 AM CST (11/12)
Length of Visible Light 11h 13m
Length of Day
10h 18m
Full, 100% of the Moon is Illuminated
Nov 12
Full
Nov 19
Last Quarter
Nov 26
New
Dec 4
First Quarter
Dec 11
Full

Hourly Weather History & Observations

Time (CST) Temp. Windchill Dew Point Humidity Pressure Visibility Wind Dir Wind Speed Gust Speed Precip Events Conditions
12:15 AM 23.0 °F 8.0 °F 19.4 °F 86% 30.38 in 10.0 mi NNW 20.7 mph 28.8 mph N/A   Overcast
12:35 AM 23.0 °F 11.1 °F 19.4 °F 86% 30.38 in 10.0 mi NNW 12.7 mph 28.8 mph N/A   Overcast
12:55 AM 23.0 °F 9.6 °F 19.4 °F 86% 30.38 in 10.0 mi NNW 16.1 mph 23.0 mph N/A   Overcast
1:15 AM 23.0 °F 10.1 °F 17.6 °F 80% 30.39 in 10.0 mi NNW 15.0 mph 23.0 mph N/A   Overcast
1:35 AM 23.0 °F 8.7 °F 15.8 °F 74% 30.39 in 10.0 mi NNW 18.4 mph 26.5 mph N/A   Overcast
1:55 AM 23.0 °F 7.6 °F 14.0 °F 68% 30.40 in 10.0 mi NNW 21.9 mph 33.4 mph N/A   Mostly Cloudy
2:15 AM 21.2 °F 6.4 °F 14.0 °F 74% 30.42 in 10.0 mi NNW 18.4 mph 27.6 mph N/A   Overcast
2:35 AM 19.4 °F 4.1 °F 10.4 °F 68% 30.42 in 10.0 mi North 18.4 mph 25.3 mph N/A   Overcast
2:55 AM 19.4 °F 2.8 °F 12.2 °F 74% 30.42 in 10.0 mi NNW 21.9 mph 32.2 mph N/A   Overcast
3:15 AM 17.6 °F 2.7 °F 8.6 °F 68% 30.43 in 10.0 mi NNW 16.1 mph 26.5 mph N/A   Scattered Clouds
3:35 AM 17.6 °F 3.2 °F 10.4 °F 73% 30.44 in 10.0 mi NNW 15.0 mph 18.4 mph N/A   Mostly Cloudy
3:55 AM 17.6 °F 4.3 °F 10.4 °F 73% 30.46 in 10.0 mi NNW 12.7 mph 21.9 mph N/A   Mostly Cloudy
4:15 AM 15.8 °F 2.1 °F 10.4 °F 79% 30.46 in 10.0 mi NNW 12.7 mph 17.3 mph N/A   Partly Cloudy
4:35 AM 15.8 °F 3.4 °F 8.6 °F 73% 30.47 in 10.0 mi NNW 10.4 mph 20.7 mph N/A   Clear
4:55 AM 15.8 °F 2.7 °F 8.6 °F 73% 30.47 in 10.0 mi NNW 11.5 mph - N/A   Clear
5:15 AM 15.8 °F 2.7 °F 8.6 °F 73% 30.48 in 10.0 mi NNW 11.5 mph 17.3 mph N/A   Clear
5:35 AM 15.8 °F 3.4 °F 8.6 °F 73% 30.49 in 10.0 mi NNW 10.4 mph - N/A   Clear
5:55 AM 14.0 °F 2.9 °F 8.6 °F 79% 30.49 in 10.0 mi NNW 8.1 mph - N/A   Clear
6:15 AM 14.0 °F 5.1 °F 8.6 °F 79% 30.50 in 10.0 mi NNW 5.8 mph - N/A   Partly Cloudy
6:55 AM 14.0 °F 2.9 °F 10.4 °F 86% 30.51 in 10.0 mi NNW 8.1 mph - N/A   Mostly Cloudy
7:15 AM 14.0 °F 2.0 °F 10.4 °F 86% 30.52 in 10.0 mi NNW 9.2 mph - N/A   Mostly Cloudy
7:55 AM 15.8 °F 2.7 °F 10.4 °F 79% 30.54 in 10.0 mi NNW 11.5 mph - N/A   Scattered Clouds
8:15 AM 17.6 °F 4.3 °F 10.4 °F 73% 30.54 in 10.0 mi NW 12.7 mph - N/A   Mostly Cloudy
9:15 AM 17.6 °F 3.2 °F 6.8 °F 63% 30.56 in 10.0 mi NNW 15.0 mph 21.9 mph N/A   Partly Cloudy
9:35 AM 17.6 °F 3.2 °F 6.8 °F 63% 30.55 in 10.0 mi NNW 15.0 mph 19.6 mph N/A   Clear
9:55 AM 17.6 °F 4.3 °F 6.8 °F 63% 30.55 in 10.0 mi North 12.7 mph 18.4 mph N/A   Clear
10:15 AM 17.6 °F 4.3 °F 6.8 °F 63% 30.55 in 10.0 mi North 12.7 mph - N/A   Clear
10:55 AM 19.4 °F 5.0 °F 5.0 °F 54% 30.55 in 10.0 mi NNW 16.1 mph 23.0 mph N/A   Clear
11:15 AM 21.2 °F 9.5 °F 6.8 °F 54% 30.54 in 10.0 mi NW 11.5 mph - N/A   Clear
11:35 AM 21.2 °F 7.8 °F 5.0 °F 50% 30.53 in 10.0 mi NNW 15.0 mph 20.7 mph N/A   Clear
12:15 PM 23.0 °F 12.4 °F 8.6 °F 54% 30.51 in 10.0 mi NNW 10.4 mph 17.3 mph N/A   Clear
12:35 PM 23.0 °F 11.1 °F 6.8 °F 50% 30.51 in 10.0 mi NNW 12.7 mph - N/A   Clear
12:55 PM 23.0 °F 11.1 °F 6.8 °F 50% 30.50 in 10.0 mi NNW 12.7 mph - N/A   Clear
1:15 PM 24.8 °F 13.4 °F 8.6 °F 50% 30.50 in 10.0 mi NW 12.7 mph 18.4 mph N/A   Clear
1:35 PM 23.0 °F 11.1 °F 6.8 °F 50% 30.49 in 10.0 mi North 12.7 mph 19.6 mph N/A   Clear
1:55 PM 24.8 °F 12.9 °F 6.8 °F 46% 30.49 in 10.0 mi NNW 13.8 mph 18.4 mph N/A   Clear
2:15 PM 24.8 °F 14.0 °F 5.0 °F 43% 30.48 in 10.0 mi NNW 11.5 mph - N/A   Clear
2:35 PM 23.0 °F 10.6 °F 5.0 °F 46% 30.48 in 10.0 mi North 13.8 mph - N/A   Clear
2:55 PM 23.0 °F 10.6 °F 5.0 °F 46% 30.48 in 10.0 mi NNW 13.8 mph - N/A   Clear
3:15 PM 24.8 °F 14.6 °F 5.0 °F 43% 30.47 in 10.0 mi NNW 10.4 mph 16.1 mph N/A   Clear
3:35 PM 23.0 °F 13.1 °F 5.0 °F 46% 30.48 in 10.0 mi NNW 9.2 mph - N/A   Clear
3:55 PM 23.0 °F 13.1 °F 3.2 °F 43% 30.47 in 10.0 mi NNW 9.2 mph - N/A   Clear
4:15 PM 23.0 °F 13.1 °F 1.4 °F 39% 30.47 in 10.0 mi North 9.2 mph - N/A   Clear
4:55 PM 19.4 °F 10.4 °F 3.2 °F 49% 30.48 in 10.0 mi North 6.9 mph - N/A   Clear
5:15 PM 19.4 °F 10.4 °F 3.2 °F 49% 30.48 in 10.0 mi North 6.9 mph - N/A   Clear
5:35 PM 19.4 °F 10.4 °F 3.2 °F 49% 30.48 in 10.0 mi North 6.9 mph - N/A   Clear
5:55 PM 17.6 °F 9.3 °F 3.2 °F 53% 30.48 in 10.0 mi North 5.8 mph - N/A   Clear
6:15 PM 17.6 °F 8.2 °F 3.2 °F 53% 30.49 in 10.0 mi North 6.9 mph - N/A   Clear
6:35 PM 17.6 °F 9.3 °F 3.2 °F 53% 30.50 in 10.0 mi North 5.8 mph - N/A   Clear
6:55 PM 17.6 °F 9.3 °F 5.0 °F 58% 30.51 in 10.0 mi North 5.8 mph - N/A   Clear
7:15 PM 17.6 °F 8.2 °F 5.0 °F 58% 30.50 in 10.0 mi North 6.9 mph - N/A   Clear
7:35 PM 15.8 °F 7.2 °F 5.0 °F 62% 30.50 in 10.0 mi NNE 5.8 mph - N/A   Clear
7:55 PM 15.8 °F 7.2 °F 5.0 °F 62% 30.50 in 10.0 mi NNE 5.8 mph - N/A   Clear
8:15 PM 15.8 °F 8.6 °F 6.8 °F 68% 30.49 in 10.0 mi NNE 4.6 mph - N/A   Clear
8:35 PM 15.8 °F 10.2 °F 6.8 °F 68% 30.49 in 10.0 mi NNE 3.5 mph - N/A   Clear
8:55 PM 14.0 °F 6.5 °F 5.0 °F 67% 30.47 in 10.0 mi NNE 4.6 mph - N/A   Clear
9:35 PM 14.0 °F - 6.8 °F 73% 30.48 in 10.0 mi Calm Calm - N/A   Clear
9:55 PM 14.0 °F 8.2 °F 8.6 °F 79% 30.47 in 10.0 mi NNE 3.5 mph - N/A   Clear
10:15 PM 12.2 °F - 6.8 °F 79% 30.47 in 10.0 mi Calm Calm - N/A   Clear
10:35 PM 10.4 °F - 6.8 °F 85% 30.47 in 10.0 mi Calm Calm - N/A   Clear
11:15 PM 10.4 °F - 6.8 °F 85% 30.46 in 10.0 mi Calm Calm - N/A   Clear
11:35 PM 10.4 °F - 8.6 °F 92% 30.46 in 10.0 mi Calm Calm - N/A   Clear
11:55 PM 10.4 °F - 8.6 °F 92% 30.45 in 10.0 mi Calm Calm - N/A   Clear